Time,TemperatureF,DewpointF,PressureIn,WindDirection,WindDirectionDegrees,WindSpeedMPH,WindSpeedGustMPH,Humidity,HourlyPrecipIn,Conditions,Clouds,dailyrainin,SoftwareType,DateUTC
2013-03-26 00:00:00,43.7,24.3,29.98,WNW,298,17.0,25.0,46,0.00,,---,0.00,VWS V14.01,2013-03-26 04:00:00,
2013-03-26 00:05:00,43.5,24.6,29.99,WNW,286,15.0,15.0,47,0.00,,---,0.00,VWS V14.01,2013-03-26 04:05:00,
2013-03-26 00:10:00,43.3,24.9,29.99,West,280,13.0,17.0,48,0.00,,---,0.00,VWS V14.01,2013-03-26 04:10:00,
2013-03-26 00:15:00,43.3,24.9,29.99,WNW,284,13.0,19.0,48,0.00,,---,0.00,VWS V14.01,2013-03-26 04:15:00,
2013-03-26 00:20:00,43.2,24.4,29.99,WNW,291,9.0,14.0,47,0.00,,---,0.00,VWS V14.01,2013-03-26 04:20:00,
2013-03-26 00:25:00,43.0,24.7,29.99,WNW,294,11.0,14.0,48,0.00,,---,0.00,VWS V14.01,2013-03-26 04:25:00,
2013-03-26 00:30:00,42.9,24.6,29.99,WNW,293,13.0,19.0,48,0.00,,---,0.00,VWS V14.01,2013-03-26 04:30:00,
2013-03-26 00:35:00,42.9,24.1,29.99,WNW,303,9.0,14.0,47,0.00,,---,0.00,VWS V14.01,2013-03-26 04:35:00,
2013-03-26 00:40:00,42.8,25.0,29.99,WNW,290,14.0,14.0,49,0.00,,---,0.00,VWS V14.01,2013-03-26 04:40:00,
2013-03-26 00:45:00,42.7,24.9,29.99,NW,315,11.0,12.0,49,0.00,,---,0.00,VWS V14.01,2013-03-26 04:45:00,
2013-03-26 00:50:00,42.6,23.8,29.99,WNW,290,11.0,25.0,47,0.00,,---,0.00,VWS V14.01,2013-03-26 04:50:00,
2013-03-26 00:55:00,42.4,24.1,30.00,NNW,330,10.0,10.0,48,0.00,,---,0.00,VWS V14.01,2013-03-26 04:55:00,
2013-03-26 01:00:00,42.2,24.9,30.00,NW,306,16.0,21.0,50,0.00,,---,0.00,VWS V14.01,2013-03-26 05:00:00,
2013-03-26 01:05:00,42.1,24.8,30.00,WNW,298,17.0,20.0,50,0.00,,---,0.00,VWS V14.01,2013-03-26 05:05:00,
2013-03-26 01:10:00,42.0,25.2,30.00,NW,304,14.0,20.0,51,0.00,,---,0.00,VWS V14.01,2013-03-26 05:10:00,
2013-03-26 01:15:00,41.9,25.1,30.00,WNW,294,11.0,15.0,51,0.00,,---,0.00,VWS V14.01,2013-03-26 05:15:00,
2013-03-26 01:20:00,41.7,24.9,30.00,WNW,293,9.0,17.0,51,0.00,,---,0.00,VWS V14.01,2013-03-26 05:20:00,
2013-03-26 01:25:00,41.6,25.3,30.01,NW,308,15.0,15.0,52,0.00,,---,0.00,VWS V14.01,2013-03-26 05:25:00,
2013-03-26 01:30:00,41.4,25.6,30.00,West,281,9.0,17.0,53,0.00,,---,0.00,VWS V14.01,2013-03-26 05:30:00,
2013-03-26 01:35:00,41.3,25.5,30.00,West,278,13.0,17.0,53,0.00,,---,0.00,VWS V14.01,2013-03-26 05:35:00,
2013-03-26 01:40:00,41.3,25.5,30.00,WNW,293,13.0,13.0,53,0.00,,---,0.00,VWS V14.01,2013-03-26 05:40:00,
2013-03-26 01:45:00,41.1,25.7,30.01,WNW,291,10.0,16.0,54,0.00,,---,0.00,VWS V14.01,2013-03-26 05:45:00,
2013-03-26 01:50:00,41.0,25.6,30.00,WNW,301,11.0,14.0,54,0.00,,---,0.00,VWS V14.01,2013-03-26 05:50:00,
2013-03-26 01:55:00,40.9,25.5,30.00,NW,308,11.0,16.0,54,0.00,,---,0.00,VWS V14.01,2013-03-26 05:55:00,
2013-03-26 02:00:00,40.9,25.5,30.00,WNW,295,12.0,16.0,54,0.00,,---,0.00,VWS V14.01,2013-03-26 06:00:00,
2013-03-26 02:05:00,40.8,25.9,30.00,WNW,298,7.0,14.0,55,0.00,,---,0.00,VWS V14.01,2013-03-26 06:05:00,
2013-03-26 02:10:00,40.7,25.8,30.00,WNW,285,17.0,22.0,55,0.00,,---,0.00,VWS V14.01,2013-03-26 06:10:00,
2013-03-26 02:15:00,40.6,26.1,30.00,WNW,298,11.0,17.0,56,0.00,,---,0.00,VWS V14.01,2013-03-26 06:15:00,
2013-03-26 02:20:00,40.5,26.5,30.00,WNW,291,12.0,15.0,57,0.00,,---,0.00,VWS V14.01,2013-03-26 06:20:00,
2013-03-26 02:25:00,40.5,26.0,30.01,West,280,10.0,16.0,56,0.00,,---,0.00,VWS V14.01,2013-03-26 06:25:00,
2013-03-26 02:30:00,40.4,26.0,30.01,WNW,293,8.0,14.0,56,0.00,,---,0.00,VWS V14.01,2013-03-26 06:30:00,
2013-03-26 02:35:00,40.3,25.9,30.01,West,280,11.0,18.0,56,0.00,,---,0.00,VWS V14.01,2013-03-26 06:35:00,
2013-03-26 02:40:00,40.3,25.9,30.00,NW,316,12.0,17.0,56,0.00,,---,0.00,VWS V14.01,2013-03-26 06:40:00,
2013-03-26 02:45:00,40.3,25.4,30.01,WNW,291,19.0,20.0,55,0.00,,---,0.00,VWS V14.01,2013-03-26 06:45:00,
2013-03-26 02:50:00,40.2,25.8,30.01,WNW,291,9.0,19.0,56,0.00,,---,0.00,VWS V14.01,2013-03-26 06:50:00,
2013-03-26 02:55:00,40.2,25.3,30.01,WNW,288,12.0,20.0,55,0.00,,---,0.00,VWS V14.01,2013-03-26 06:55:00,
2013-03-26 03:00:00,40.1,25.7,30.01,WNW,291,13.0,17.0,56,0.00,,---,0.00,VWS V14.01,2013-03-26 07:00:00,
2013-03-26 03:05:00,40.0,25.1,30.01,West,259,14.0,19.0,55,0.00,,---,0.00,VWS V14.01,2013-03-26 07:05:00,
2013-03-26 03:10:00,39.9,25.5,30.01,WNW,290,11.0,14.0,56,0.00,,---,0.00,VWS V14.01,2013-03-26 07:10:00,
2013-03-26 03:15:00,39.8,25.8,30.01,WNW,287,11.0,14.0,57,0.00,,---,0.00,VWS V14.01,2013-03-26 07:15:00,
2013-03-26 03:20:00,39.7,25.3,30.01,WNW,300,9.0,15.0,56,0.00,,---,0.00,VWS V14.01,2013-03-26 07:20:00,
2013-03-26 03:25:00,39.6,25.6,30.01,West,264,10.0,16.0,57,0.00,,---,0.00,VWS V14.01,2013-03-26 07:25:00,
2013-03-26 03:30:00,39.4,26.3,30.01,WNW,284,5.0,9.0,59,0.00,,---,0.00,VWS V14.01,2013-03-26 07:30:00,
2013-03-26 03:35:00,39.2,26.1,30.01,WNW,284,8.0,10.0,59,0.00,,---,0.00,VWS V14.01,2013-03-26 07:35:00,
2013-03-26 03:40:00,39.3,25.4,30.00,West,277,7.0,18.0,57,0.00,,---,0.00,VWS V14.01,2013-03-26 07:40:00,
2013-03-26 03:45:00,39.2,25.7,30.01,WNW,290,5.0,14.0,58,0.00,,---,0.00,VWS V14.01,2013-03-26 07:45:00,
2013-03-26 03:50:00,39.1,26.0,30.01,WNW,286,5.0,11.0,59,0.00,,---,0.00,VWS V14.01,2013-03-26 07:50:00,
2013-03-26 03:55:00,38.9,25.8,30.00,West,279,13.0,15.0,59,0.00,,---,0.00,VWS V14.01,2013-03-26 07:55:00,
2013-03-26 04:00:00,38.9,25.8,30.01,West,281,8.0,12.0,59,0.00,,---,0.00,VWS V14.01,2013-03-26 08:00:00,
2013-03-26 04:05:00,38.9,25.8,30.01,West,277,6.0,14.0,59,0.00,,---,0.00,VWS V14.01,2013-03-26 08:05:00,
2013-03-26 04:10:00,38.8,26.1,30.00,West,269,7.0,10.0,60,0.00,,---,0.00,VWS V14.01,2013-03-26 08:10:00,
2013-03-26 04:15:00,38.7,26.0,30.00,WNW,285,7.0,16.0,60,0.00,,---,0.00,VWS V14.01,2013-03-26 08:15:00,
2013-03-26 04:20:00,38.7,26.0,30.01,WNW,293,6.0,19.0,60,0.00,,---,0.00,VWS V14.01,2013-03-26 08:20:00,
2013-03-26 04:25:00,38.7,25.6,30.01,WNW,288,8.0,15.0,59,0.00,,---,0.00,VWS V14.01,2013-03-26 08:25:00,
2013-03-26 04:30:00,38.5,25.8,30.00,West,262,8.0,11.0,60,0.00,,---,0.00,VWS V14.01,2013-03-26 08:30:00,
2013-03-26 04:35:00,38.5,26.2,30.00,WNW,291,6.0,12.0,61,0.00,,---,0.00,VWS V14.01,2013-03-26 08:35:00,
2013-03-26 04:40:00,38.2,26.3,30.01,West,269,3.0,8.0,62,0.00,,---,0.00,VWS V14.01,2013-03-26 08:40:00,
2013-03-26 04:45:00,38.1,26.2,30.00,WNW,293,8.0,12.0,62,0.00,,---,0.00,VWS V14.01,2013-03-26 08:45:00,
2013-03-26 04:50:00,38.2,26.3,30.01,WNW,293,9.0,13.0,62,0.00,,---,0.00,VWS V14.01,2013-03-26 08:50:00,
2013-03-26 04:55:00,38.2,26.0,30.01,WNW,295,7.0,14.0,61,0.00,,---,0.00,VWS V14.01,2013-03-26 08:55:00,
2013-03-26 05:00:00,38.1,26.2,30.00,WNW,284,7.0,12.0,62,0.00,,---,0.00,VWS V14.01,2013-03-26 09:00:00,
2013-03-26 05:05:00,38.0,26.1,30.00,WNW,291,8.0,13.0,62,0.00,,---,0.00,VWS V14.01,2013-03-26 09:05:00,
2013-03-26 05:10:00,38.0,26.5,30.01,WNW,295,12.0,13.0,63,0.00,,---,0.00,VWS V14.01,2013-03-26 09:10:00,
2013-03-26 05:15:00,37.9,26.5,30.01,WNW,282,7.0,12.0,63,0.00,,---,0.00,VWS V14.01,2013-03-26 09:15:00,
2013-03-26 05:20:00,37.8,26.7,30.00,West,264,7.0,10.0,64,0.00,,---,0.00,VWS V14.01,2013-03-26 09:20:00,
2013-03-26 05:25:00,37.8,26.4,30.00,WNW,290,5.0,11.0,63,0.00,,---,0.00,VWS V14.01,2013-03-26 09:25:00,
2013-03-26 05:30:00,37.7,26.3,30.01,West,264,6.0,11.0,63,0.00,,---,0.00,VWS V14.01,2013-03-26 09:30:00,
2013-03-26 05:35:00,37.6,26.2,30.01,WNW,291,5.0,11.0,63,0.00,,---,0.00,VWS V14.01,2013-03-26 09:35:00,
2013-03-26 05:40:00,37.6,26.2,30.01,WNW,298,7.0,12.0,63,0.00,,---,0.00,VWS V14.01,2013-03-26 09:40:00,
2013-03-26 05:45:00,37.5,26.1,30.01,West,265,6.0,11.0,63,0.00,,---,0.00,VWS V14.01,2013-03-26 09:45:00,
2013-03-26 05:50:00,37.6,26.5,30.01,West,278,6.0,14.0,64,0.00,,---,0.00,VWS V14.01,2013-03-26 09:50:00,
2013-03-26 05:55:00,37.4,26.7,30.01,WNW,287,8.0,11.0,65,0.00,,---,0.00,VWS V14.01,2013-03-26 09:55:00,
2013-03-26 06:00:00,37.3,26.6,30.01,West,271,9.0,12.0,65,0.00,,---,0.00,VWS V14.01,2013-03-26 10:00:00,
2013-03-26 06:05:00,37.3,26.3,30.01,WNW,291,7.0,11.0,64,0.00,,---,0.00,VWS V14.01,2013-03-26 10:05:00,
2013-03-26 06:10:00,37.3,26.6,30.01,WNW,288,8.0,11.0,65,0.00,,---,0.00,VWS V14.01,2013-03-26 10:10:00,
2013-03-26 06:15:00,37.2,26.2,30.02,West,277,4.0,12.0,64,0.00,,---,0.00,VWS V14.01,2013-03-26 10:15:00,
2013-03-26 06:20:00,37.1,26.8,30.02,West,262,6.0,13.0,66,0.00,,---,0.00,VWS V14.01,2013-03-26 10:20:00,
2013-03-26 06:25:00,37.0,26.7,30.02,West,281,9.0,13.0,66,0.00,,---,0.00,VWS V14.01,2013-03-26 10:25:00,
2013-03-26 06:30:00,37.0,26.7,30.02,WNW,303,10.0,12.0,66,0.00,,---,0.00,VWS V14.01,2013-03-26 10:30:00,
2013-03-26 06:35:00,36.9,26.6,30.02,West,279,7.0,11.0,66,0.00,,---,0.00,VWS V14.01,2013-03-26 10:35:00,
2013-03-26 06:40:00,36.8,26.5,30.02,West,271,5.0,11.0,66,0.00,,---,0.00,VWS V14.01,2013-03-26 10:40:00,
2013-03-26 06:45:00,36.8,26.9,30.02,WNW,283,5.0,9.0,67,0.00,,---,0.00,VWS V14.01,2013-03-26 10:45:00,
2013-03-26 06:50:00,36.7,26.8,30.03,West,277,8.0,10.0,67,0.00,,---,0.00,VWS V14.01,2013-03-26 10:50:00,
2013-03-26 06:55:00,36.7,26.8,30.03,West,270,8.0,9.0,67,0.00,,---,0.00,VWS V14.01,2013-03-26 10:55:00,
2013-03-26 07:00:00,36.7,26.8,30.03,WSW,256,6.0,11.0,67,0.00,,---,0.00,VWS V14.01,2013-03-26 11:00:00,
2013-03-26 07:05:00,36.7,26.8,30.03,WNW,286,7.0,12.0,67,0.00,,---,0.00,VWS V14.01,2013-03-26 11:05:00,
2013-03-26 07:10:00,36.7,26.8,30.03,WNW,285,6.0,11.0,67,0.00,,---,0.00,VWS V14.01,2013-03-26 11:10:00,
2013-03-26 07:15:00,36.7,27.1,30.03,WNW,291,4.0,11.0,68,0.00,,---,0.00,VWS V14.01,2013-03-26 11:15:00,
2013-03-26 07:20:00,36.6,27.0,30.03,WNW,293,12.0,14.0,68,0.00,,---,0.00,VWS V14.01,2013-03-26 11:20:00,
2013-03-26 07:25:00,36.6,27.4,30.03,WNW,284,5.0,9.0,69,0.00,,---,0.00,VWS V14.01,2013-03-26 11:25:00,
2013-03-26 07:30:00,36.7,27.5,30.03,WSW,241,7.0,11.0,69,0.00,,---,0.00,VWS V14.01,2013-03-26 11:30:00,
2013-03-26 07:35:00,36.9,27.7,30.03,WNW,284,11.0,12.0,69,0.00,,---,0.00,VWS V14.01,2013-03-26 11:35:00,
2013-03-26 07:40:00,37.1,27.5,30.04,WSW,252,9.0,14.0,68,0.00,,---,0.00,VWS V14.01,2013-03-26 11:40:00,
2013-03-26 07:45:00,37.3,27.7,30.04,WNW,291,14.0,14.0,68,0.00,,---,0.00,VWS V14.01,2013-03-26 11:45:00,
2013-03-26 07:50:00,37.4,27.5,30.04,West,267,10.0,12.0,67,0.00,,---,0.00,VWS V14.01,2013-03-26 11:50:00,
2013-03-26 07:55:00,37.6,28.0,30.04,West,278,6.0,11.0,68,0.00,,---,0.00,VWS V14.01,2013-03-26 11:55:00,
2013-03-26 08:00:00,37.7,27.8,30.04,WNW,302,8.0,15.0,67,0.00,,---,0.00,VWS V14.01,2013-03-26 12:00:00,
2013-03-26 08:05:00,37.9,27.6,30.04,WNW,290,9.0,14.0,66,0.00,,---,0.00,VWS V14.01,2013-03-26 12:05:00,
2013-03-26 08:10:00,38.0,28.0,30.05,WNW,298,10.0,14.0,67,0.00,,---,0.00,VWS V14.01,2013-03-26 12:10:00,
2013-03-26 08:15:00,38.1,27.8,30.05,WNW,285,9.0,15.0,66,0.00,,---,0.00,VWS V14.01,2013-03-26 12:15:00,
2013-03-26 08:20:00,38.3,28.0,30.05,WNW,288,8.0,15.0,66,0.00,,---,0.00,VWS V14.01,2013-03-26 12:20:00,
2013-03-26 08:25:00,38.5,27.8,30.05,WNW,286,9.0,16.0,65,0.00,,---,0.00,VWS V14.01,2013-03-26 12:25:00,
2013-03-26 08:30:00,38.5,27.8,30.05,West,264,10.0,16.0,65,0.00,,---,0.00,VWS V14.01,2013-03-26 12:30:00,
2013-03-26 08:35:00,38.7,28.0,30.05,WNW,286,10.0,16.0,65,0.00,,---,0.00,VWS V14.01,2013-03-26 12:35:00,
2013-03-26 08:40:00,39.0,28.2,30.05,West,281,7.0,14.0,65,0.00,,---,0.00,VWS V14.01,2013-03-26 12:40:00,
2013-03-26 08:45:00,39.3,28.5,30.05,WNW,290,10.0,13.0,65,0.00,,---,0.00,VWS V14.01,2013-03-26 12:45:00,
2013-03-26 08:50:00,39.4,28.2,30.05,WNW,297,11.0,14.0,64,0.00,,---,0.00,VWS V14.01,2013-03-26 12:50:00,
2013-03-26 08:55:00,39.1,27.2,30.05,WNW,288,16.0,22.0,62,0.00,,---,0.00,VWS V14.01,2013-03-26 12:55:00,
2013-03-26 09:00:00,39.1,27.2,30.05,NW,324,12.0,19.0,62,0.00,,---,0.00,VWS V14.01,2013-03-26 13:00:00,
2013-03-26 09:05:00,39.5,28.7,30.05,WNW,295,8.0,14.0,65,0.00,,---,0.00,VWS V14.01,2013-03-26 13:05:00,
2013-03-26 09:10:00,39.5,27.6,30.06,WNW,290,13.0,20.0,62,0.00,,---,0.00,VWS V14.01,2013-03-26 13:10:00,
2013-03-26 09:15:00,39.9,28.3,30.05,WNW,283,11.0,15.0,63,0.00,,---,0.00,VWS V14.01,2013-03-26 13:15:00,
2013-03-26 09:20:00,40.2,28.6,30.05,WNW,297,14.0,16.0,63,0.00,,---,0.00,VWS V14.01,2013-03-26 13:20:00,
2013-03-26 09:25:00,40.0,27.2,30.05,NW,310,11.0,20.0,60,0.00,,---,0.00,VWS V14.01,2013-03-26 13:25:00,
2013-03-26 09:30:00,40.1,28.1,30.06,WNW,288,17.0,17.0,62,0.00,,---,0.00,VWS V14.01,2013-03-26 13:30:00,
2013-03-26 09:35:00,40.4,28.0,30.05,West,280,6.0,19.0,61,0.00,,---,0.00,VWS V14.01,2013-03-26 13:35:00,
2013-03-26 09:40:00,40.9,28.9,30.06,West,269,13.0,18.0,62,0.00,,---,0.00,VWS V14.01,2013-03-26 13:40:00,
2013-03-26 09:45:00,40.7,27.9,30.05,WNW,302,11.0,19.0,60,0.00,,---,0.00,VWS V14.01,2013-03-26 13:45:00,
2013-03-26 09:50:00,40.9,28.5,30.05,West,278,7.0,18.0,61,0.00,,---,0.00,VWS V14.01,2013-03-26 13:50:00,
2013-03-26 09:55:00,41.0,28.2,30.05,WNW,294,11.0,19.0,60,0.00,,---,0.00,VWS V14.01,2013-03-26 13:55:00,
2013-03-26 10:00:00,40.9,27.7,30.05,WNW,293,12.0,21.0,59,0.00,,---,0.00,VWS V14.01,2013-03-26 14:00:00,
2013-03-26 10:05:00,41.1,28.3,30.05,West,281,10.0,23.0,60,0.00,,---,0.00,VWS V14.01,2013-03-26 14:05:00,
2013-03-26 10:10:00,41.4,28.2,30.05,WNW,293,7.0,18.0,59,0.00,,---,0.00,VWS V14.01,2013-03-26 14:10:00,
2013-03-26 10:15:00,41.6,28.8,30.05,WNW,284,11.0,16.0,60,0.00,,---,0.00,VWS V14.01,2013-03-26 14:15:00,
2013-03-26 10:20:00,41.5,28.7,30.05,WNW,300,12.0,19.0,60,0.00,,---,0.00,VWS V14.01,2013-03-26 14:20:00,
2013-03-26 10:25:00,41.8,28.1,30.05,WNW,285,12.0,20.0,58,0.00,,---,0.00,VWS V14.01,2013-03-26 14:25:00,
2013-03-26 10:30:00,41.9,27.4,30.05,WNW,302,11.0,20.0,56,0.00,,---,0.00,VWS V14.01,2013-03-26 14:30:00,
2013-03-26 10:35:00,42.0,28.7,30.05,WNW,297,13.0,17.0,59,0.00,,---,0.00,VWS V14.01,2013-03-26 14:35:00,
2013-03-26 10:40:00,42.0,27.9,30.05,WNW,289,7.0,18.0,57,0.00,,---,0.00,VWS V14.01,2013-03-26 14:40:00,
2013-03-26 10:45:00,42.4,28.7,30.05,NW,309,9.0,19.0,58,0.00,,---,0.00,VWS V14.01,2013-03-26 14:45:00,
2013-03-26 10:50:00,42.7,29.0,30.05,WNW,288,17.0,18.0,58,0.00,,---,0.00,VWS V14.01,2013-03-26 14:50:00,
2013-03-26 10:55:00,43.1,29.8,30.05,WNW,294,7.0,15.0,59,0.00,,---,0.00,VWS V14.01,2013-03-26 14:55:00,
2013-03-26 11:00:00,43.2,29.0,30.05,WNW,300,8.0,16.0,57,0.00,,---,0.00,VWS V14.01,2013-03-26 15:00:00,
2013-03-26 11:05:00,43.6,30.2,30.05,NW,322,11.0,15.0,59,0.00,,---,0.00,VWS V14.01,2013-03-26 15:05:00,
2013-03-26 11:10:00,43.7,29.5,30.05,WNW,285,15.0,16.0,57,0.00,,---,0.00,VWS V14.01,2013-03-26 15:10:00,
2013-03-26 11:15:00,44.0,29.8,30.05,WNW,300,11.0,15.0,57,0.00,,---,0.00,VWS V14.01,2013-03-26 15:15:00,
2013-03-26 11:20:00,44.1,28.5,30.05,West,270,9.0,16.0,54,0.00,,---,0.00,VWS V14.01,2013-03-26 15:20:00,
2013-03-26 11:25:00,44.0,29.3,30.05,WNW,288,12.0,19.0,56,0.00,,---,0.00,VWS V14.01,2013-03-26 15:25:00,
2013-03-26 11:30:00,43.9,28.8,30.05,West,270,5.0,16.0,55,0.00,,---,0.00,VWS V14.01,2013-03-26 15:30:00,
2013-03-26 11:35:00,44.6,29.9,30.05,WNW,288,10.0,17.0,56,0.00,,---,0.00,VWS V14.01,2013-03-26 15:35:00,
2013-03-26 11:40:00,44.9,28.8,30.05,WSW,246,11.0,17.0,53,0.00,,---,0.00,VWS V14.01,2013-03-26 15:40:00,
2013-03-26 11:45:00,44.6,28.1,30.05,WNW,293,9.0,17.0,52,0.00,,---,0.00,VWS V14.01,2013-03-26 15:45:00,
2013-03-26 11:50:00,44.9,29.3,30.05,WNW,283,12.0,14.0,54,0.00,,---,0.00,VWS V14.01,2013-03-26 15:50:00,
2013-03-26 11:55:00,45.0,28.0,30.05,West,277,14.0,20.0,51,0.00,,---,0.00,VWS V14.01,2013-03-26 15:55:00,
2013-03-26 12:00:00,44.7,28.6,30.05,West,266,11.0,17.0,53,0.00,,---,0.00,VWS V14.01,2013-03-26 16:00:00,
2013-03-26 12:05:00,45.1,29.5,30.05,WNW,295,11.0,16.0,54,0.00,,---,0.00,VWS V14.01,2013-03-26 16:05:00,
2013-03-26 12:10:00,45.1,28.1,30.05,West,276,7.0,16.0,51,0.00,,---,0.00,VWS V14.01,2013-03-26 16:10:00,
2013-03-26 12:15:00,45.5,28.9,30.05,WSW,250,6.0,20.0,52,0.00,,---,0.00,VWS V14.01,2013-03-26 16:15:00,
2013-03-26 12:20:00,46.1,29.0,30.05,WNW,286,11.0,20.0,51,0.00,,---,0.00,VWS V14.01,2013-03-26 16:20:00,
2013-03-26 12:25:00,45.9,29.3,30.05,WNW,300,11.0,20.0,52,0.00,,---,0.00,VWS V14.01,2013-03-26 16:25:00,
2013-03-26 12:30:00,46.2,29.1,30.05,NW,307,10.0,17.0,51,0.00,,---,0.00,VWS V14.01,2013-03-26 16:30:00,
2013-03-26 12:35:00,46.1,27.0,30.05,WNW,301,12.0,21.0,47,0.00,,---,0.00,VWS V14.01,2013-03-26 16:35:00,
2013-03-26 12:40:00,46.4,29.8,30.05,West,273,15.0,20.0,52,0.00,,---,0.00,VWS V14.01,2013-03-26 16:40:00,
2013-03-26 12:45:00,46.8,31.0,30.05,WNW,290,10.0,16.0,54,0.00,,---,0.00,VWS V14.01,2013-03-26 16:45:00,
2013-03-26 12:50:00,47.2,29.5,30.04,WNW,285,12.0,17.0,50,0.00,,---,0.00,VWS V14.01,2013-03-26 16:50:00,
2013-03-26 12:55:00,46.9,28.2,30.04,NW,316,12.0,21.0,48,0.00,,---,0.00,VWS V14.01,2013-03-26 16:55:00,
2013-03-26 13:00:00,46.9,28.2,30.04,West,274,13.0,20.0,48,0.00,,---,0.00,VWS V14.01,2013-03-26 17:00:00,
2013-03-26 13:05:00,47.0,28.9,30.04,WSW,253,16.0,20.0,49,0.00,,---,0.00,VWS V14.01,2013-03-26 17:05:00,
2013-03-26 13:10:00,47.1,29.9,30.04,WNW,286,15.0,21.0,51,0.00,,---,0.00,VWS V14.01,2013-03-26 17:10:00,
2013-03-26 13:15:00,46.7,29.5,30.04,West,277,11.0,19.0,51,0.00,,---,0.00,VWS V14.01,2013-03-26 17:15:00,
2013-03-26 13:20:00,47.0,29.3,30.04,WNW,298,10.0,20.0,50,0.00,,---,0.00,VWS V14.01,2013-03-26 17:20:00,
2013-03-26 13:25:00,47.1,27.4,30.04,West,265,16.0,20.0,46,0.00,,---,0.00,VWS V14.01,2013-03-26 17:25:00,
2013-03-26 13:30:00,47.6,28.9,30.03,WNW,284,23.0,25.0,48,0.00,,---,0.00,VWS V14.01,2013-03-26 17:30:00,
2013-03-26 13:35:00,47.7,28.5,30.03,SW,229,10.0,23.0,47,0.00,,---,0.00,VWS V14.01,2013-03-26 17:35:00,
2013-03-26 13:40:00,48.3,28.0,30.03,SW,214,6.0,21.0,45,0.00,,---,0.00,VWS V14.01,2013-03-26 17:40:00,
2013-03-26 13:45:00,48.3,28.0,30.03,WSW,257,18.0,25.0,45,0.00,,---,0.00,VWS V14.01,2013-03-26 17:45:00,
2013-03-26 13:50:00,48.3,28.5,30.03,WSW,243,9.0,20.0,46,0.00,,---,0.00,VWS V14.01,2013-03-26 17:50:00,
2013-03-26 13:55:00,48.1,29.9,30.04,West,280,10.0,26.0,49,0.00,,---,0.00,VWS V14.01,2013-03-26 17:55:00,
2013-03-26 14:00:00,48.5,28.7,30.04,WNW,284,12.0,19.0,46,0.00,,---,0.00,VWS V14.01,2013-03-26 18:00:00,
2013-03-26 14:05:00,48.9,31.1,30.04,WNW,288,7.0,19.0,50,0.00,,---,0.00,VWS V14.01,2013-03-26 18:05:00,
2013-03-26 14:10:00,49.9,30.0,30.03,WNW,298,9.0,16.0,46,0.00,,---,0.00,VWS V14.01,2013-03-26 18:10:00,
2013-03-26 14:15:00,49.4,30.0,30.04,West,264,17.0,21.0,47,0.00,,---,0.00,VWS V14.01,2013-03-26 18:15:00,
2013-03-26 14:19:00,48.6,28.2,30.04,West,273,11.0,22.0,45,0.00,,---,0.00,VWS V14.01,2013-03-26 18:19:00,
2013-03-26 14:24:00,48.5,28.1,30.04,WNW,284,10.0,19.0,45,0.00,,---,0.00,VWS V14.01,2013-03-26 18:24:00,
2013-03-26 14:29:00,48.5,28.1,30.04,WNW,284,14.0,21.0,45,0.00,,---,0.00,VWS V14.01,2013-03-26 18:29:00,
2013-03-26 14:34:00,48.5,28.7,30.04,WNW,284,14.0,23.0,46,0.00,,---,0.00,VWS V14.01,2013-03-26 18:34:00,
2013-03-26 14:39:00,48.3,28.5,30.04,WNW,285,18.0,26.0,46,0.00,,---,0.00,VWS V14.01,2013-03-26 18:39:00,
2013-03-26 14:44:00,48.1,28.8,30.04,WNW,287,10.0,21.0,47,0.00,,---,0.00,VWS V14.01,2013-03-26 18:44:00,
2013-03-26 14:49:00,48.2,30.0,30.05,WNW,297,9.0,19.0,49,0.00,,---,0.00,VWS V14.01,2013-03-26 18:49:00,
2013-03-26 14:54:00,48.2,28.4,30.05,WNW,283,14.0,19.0,46,0.00,,---,0.00,VWS V14.01,2013-03-26 18:54:00,
2013-03-26 14:59:00,48.6,29.3,30.05,WNW,302,10.0,17.0,47,0.00,,---,0.00,VWS V14.01,2013-03-26 18:59:00,
2013-03-26 15:04:00,48.4,29.1,30.04,WNW,286,15.0,17.0,47,0.00,,---,0.00,VWS V14.01,2013-03-26 19:04:00,
2013-03-26 15:09:00,48.4,28.6,30.04,West,276,20.0,21.0,46,0.00,,---,0.00,VWS V14.01,2013-03-26 19:09:00,
2013-03-26 15:14:00,48.3,29.0,30.04,WNW,298,11.0,19.0,47,0.00,,---,0.00,VWS V14.01,2013-03-26 19:14:00,
2013-03-26 15:19:00,48.7,28.9,30.05,WNW,283,11.0,19.0,46,0.00,,---,0.00,VWS V14.01,2013-03-26 19:19:00,
2013-03-26 15:24:00,48.5,29.2,30.05,WNW,283,16.0,20.0,47,0.00,,---,0.00,VWS V14.01,2013-03-26 19:24:00,
2013-03-26 15:29:00,48.5,28.7,30.05,NW,304,17.0,23.0,46,0.00,,---,0.00,VWS V14.01,2013-03-26 19:29:00,
2013-03-26 15:34:00,48.4,28.6,30.05,WNW,300,14.0,22.0,46,0.00,,---,0.00,VWS V14.01,2013-03-26 19:34:00,
2013-03-26 15:39:00,48.3,28.5,30.04,WNW,298,15.0,24.0,46,0.00,,---,0.00,VWS V14.01,2013-03-26 19:39:00,
2013-03-26 15:44:00,48.3,29.0,30.04,WNW,302,12.0,25.0,47,0.00,,---,0.00,VWS V14.01,2013-03-26 19:44:00,
2013-03-26 15:49:00,48.8,28.4,30.04,WNW,294,8.0,20.0,45,0.00,,---,0.00,VWS V14.01,2013-03-26 19:49:00,
2013-03-26 15:54:00,48.8,28.4,30.04,WNW,289,11.0,22.0,45,0.00,,---,0.00,VWS V14.01,2013-03-26 19:54:00,
2013-03-26 15:59:00,48.6,27.7,30.05,WNW,285,12.0,19.0,44,0.00,,---,0.00,VWS V14.01,2013-03-26 19:59:00,
2013-03-26 16:04:00,48.5,28.7,30.05,NW,319,7.0,17.0,46,0.00,,---,0.00,VWS V14.01,2013-03-26 20:04:00,
2013-03-26 16:09:00,48.7,28.3,30.05,WNW,291,13.0,15.0,45,0.00,,---,0.00,VWS V14.01,2013-03-26 20:09:00,
2013-03-26 16:14:00,48.8,29.5,30.05,NW,308,5.0,16.0,47,0.00,,---,0.00,VWS V14.01,2013-03-26 20:14:00,
2013-03-26 16:19:00,48.9,28.5,30.05,West,277,13.0,17.0,45,0.00,,---,0.00,VWS V14.01,2013-03-26 20:19:00,
2013-03-26 16:24:00,48.5,27.6,30.05,WNW,298,14.0,21.0,44,0.00,,---,0.00,VWS V14.01,2013-03-26 20:24:00,
2013-03-26 16:29:00,48.4,27.5,30.05,WNW,297,14.0,22.0,44,0.00,,---,0.00,VWS V14.01,2013-03-26 20:29:00,
2013-03-26 16:34:00,48.8,27.9,30.05,WNW,293,11.0,17.0,44,0.00,,---,0.00,VWS V14.01,2013-03-26 20:34:00,
2013-03-26 16:39:00,49.3,28.9,30.05,West,281,10.0,16.0,45,0.00,,---,0.00,VWS V14.01,2013-03-26 20:39:00,
2013-03-26 16:44:00,49.3,27.2,30.05,WNW,293,16.0,19.0,42,0.00,,---,0.00,VWS V14.01,2013-03-26 20:44:00,
2013-03-26 16:49:00,48.7,27.2,30.05,WNW,286,11.0,13.0,43,0.00,,---,0.00,VWS V14.01,2013-03-26 20:49:00,
2013-03-26 16:54:00,48.8,28.4,30.05,WNW,285,10.0,22.0,45,0.00,,---,0.00,VWS V14.01,2013-03-26 20:54:00,
2013-03-26 16:59:00,49.1,28.1,30.05,WNW,285,8.0,18.0,44,0.00,,---,0.00,VWS V14.01,2013-03-26 20:59:00,
2013-03-26 17:04:00,49.2,28.8,30.05,West,281,8.0,19.0,45,0.00,,---,0.00,VWS V14.01,2013-03-26 21:04:00,
2013-03-26 17:09:00,49.5,28.5,30.06,NW,316,11.0,17.0,44,0.00,,---,0.00,VWS V14.01,2013-03-26 21:09:00,
2013-03-26 17:14:00,49.2,27.7,30.06,West,274,11.0,24.0,43,0.00,,---,0.00,VWS V14.01,2013-03-26 21:14:00,
2013-03-26 17:19:00,49.3,27.8,30.06,WNW,293,13.0,22.0,43,0.00,,---,0.00,VWS V14.01,2013-03-26 21:19:00,
2013-03-26 17:24:00,49.7,27.6,30.06,West,274,13.0,21.0,42,0.00,,---,0.00,VWS V14.01,2013-03-26 21:24:00,
2013-03-26 17:29:00,49.7,28.1,30.06,WNW,297,13.0,21.0,43,0.00,,---,0.00,VWS V14.01,2013-03-26 21:29:00,
2013-03-26 17:34:00,49.2,28.2,30.07,NW,324,12.0,19.0,44,0.00,,---,0.00,VWS V14.01,2013-03-26 21:34:00,
2013-03-26 17:39:00,49.9,29.4,30.07,NNW,335,9.0,17.0,45,0.00,,---,0.00,VWS V14.01,2013-03-26 21:39:00,
2013-03-26 17:44:00,49.6,27.5,30.07,NW,308,8.0,19.0,42,0.00,,---,0.00,VWS V14.01,2013-03-26 21:44:00,
2013-03-26 17:49:00,49.0,28.0,30.07,WNW,293,10.0,19.0,44,0.00,,---,0.00,VWS V14.01,2013-03-26 21:49:00,
2013-03-26 17:54:00,48.7,28.3,30.08,WNW,295,12.0,13.0,45,0.00,,---,0.00,VWS V14.01,2013-03-26 21:54:00,
2013-03-26 17:59:00,48.7,27.8,30.08,WNW,293,13.0,15.0,44,0.00,,---,0.00,VWS V14.01,2013-03-26 21:59:00,
2013-03-26 18:04:00,49.1,28.7,30.08,WNW,288,12.0,14.0,45,0.00,,---,0.00,VWS V14.01,2013-03-26 22:04:00,
2013-03-26 18:09:00,49.7,28.7,30.08,NW,316,13.0,16.0,44,0.00,,---,0.00,VWS V14.01,2013-03-26 22:09:00,
2013-03-26 18:14:00,50.0,29.0,30.08,WNW,302,14.0,15.0,44,0.00,,---,0.00,VWS V14.01,2013-03-26 22:14:00,
2013-03-26 18:19:00,49.8,28.2,30.09,WNW,288,10.0,15.0,43,0.00,,---,0.00,VWS V14.01,2013-03-26 22:19:00,
2013-03-26 18:24:00,49.5,29.1,30.09,West,281,8.0,17.0,45,0.00,,---,0.00,VWS V14.01,2013-03-26 22:24:00,
2013-03-26 18:29:00,49.9,28.9,30.09,NW,308,9.0,14.0,44,0.00,,---,0.00,VWS V14.01,2013-03-26 22:29:00,
2013-03-26 18:34:00,50.1,28.5,30.09,West,281,8.0,13.0,43,0.00,,---,0.00,VWS V14.01,2013-03-26 22:34:00,
2013-03-26 18:39:00,50.1,29.6,30.09,WNW,300,11.0,14.0,45,0.00,,---,0.00,VWS V14.01,2013-03-26 22:39:00,
2013-03-26 18:44:00,49.9,28.9,30.10,WNW,296,11.0,16.0,44,0.00,,---,0.00,VWS V14.01,2013-03-26 22:44:00,
2013-03-26 18:49:00,49.5,28.5,30.10,WNW,287,13.0,15.0,44,0.00,,---,0.00,VWS V14.01,2013-03-26 22:49:00,
2013-03-26 18:54:00,49.3,28.9,30.10,WNW,288,9.0,14.0,45,0.00,,---,0.00,VWS V14.01,2013-03-26 22:54:00,
2013-03-26 18:59:00,49.2,28.8,30.10,WNW,298,7.0,14.0,45,0.00,,---,0.00,VWS V14.01,2013-03-26 22:59:00,
2013-03-26 19:04:00,49.0,28.6,30.10,WNW,286,7.0,14.0,45,0.00,,---,0.00,VWS V14.01,2013-03-26 23:04:00,
2013-03-26 19:09:00,48.8,29.5,30.10,NW,326,7.0,13.0,47,0.00,,---,0.00,VWS V14.01,2013-03-26 23:09:00,
2013-03-26 19:14:00,48.7,29.4,30.11,WNW,298,4.0,11.0,47,0.00,,---,0.00,VWS V14.01,2013-03-26 23:14:00,
2013-03-26 19:19:00,48.5,29.2,30.11,NW,308,5.0,12.0,47,0.00,,---,0.00,VWS V14.01,2013-03-26 23:19:00,
2013-03-26 19:24:00,48.2,28.9,30.11,WNW,295,7.0,13.0,47,0.00,,---,0.00,VWS V14.01,2013-03-26 23:24:00,
2013-03-26 19:29:00,47.9,28.7,30.11,WNW,298,9.0,12.0,47,0.00,,---,0.00,VWS V14.01,2013-03-26 23:29:00,
2013-03-26 19:34:00,47.7,29.0,30.11,NW,307,7.0,10.0,48,0.00,,---,0.00,VWS V14.01,2013-03-26 23:34:00,
2013-03-26 19:39:00,47.5,29.3,30.12,WNW,297,10.0,13.0,49,0.00,,---,0.00,VWS V14.01,2013-03-26 23:39:00,
2013-03-26 19:44:00,47.3,29.6,30.12,WNW,297,5.0,14.0,50,0.00,,---,0.00,VWS V14.01,2013-03-26 23:44:00,
2013-03-26 19:49:00,47.3,29.6,30.12,NW,308,7.0,10.0,50,0.00,,---,0.00,VWS V14.01,2013-03-26 23:49:00,
2013-03-26 19:54:00,47.2,29.5,30.12,WNW,293,6.0,9.0,50,0.00,,---,0.00,VWS V14.01,2013-03-26 23:54:00,
2013-03-26 19:59:00,47.1,30.4,30.12,WNW,285,5.0,8.0,52,0.00,,---,0.00,VWS V14.01,2013-03-26 23:59:00,
2013-03-26 20:04:00,46.9,30.2,30.13,WNW,293,4.0,9.0,52,0.00,,---,0.00,VWS V14.01,2013-03-27 00:04:00,
2013-03-26 20:09:00,46.8,30.1,30.13,WNW,291,5.0,8.0,52,0.00,,---,0.00,VWS V14.01,2013-03-27 00:09:00,
2013-03-26 20:14:00,46.7,31.4,30.13,WNW,295,3.0,7.0,55,0.00,,---,0.00,VWS V14.01,2013-03-27 00:14:00,
2013-03-26 20:19:00,46.7,31.0,30.13,WNW,297,5.0,9.0,54,0.00,,---,0.00,VWS V14.01,2013-03-27 00:19:00,
2013-03-26 20:24:00,46.6,31.3,30.14,WNW,284,5.0,8.0,55,0.00,,---,0.00,VWS V14.01,2013-03-27 00:24:00,
2013-03-26 20:29:00,46.5,31.2,30.14,WNW,284,5.0,6.0,55,0.00,,---,0.00,VWS V14.01,2013-03-27 00:29:00,
2013-03-26 20:34:00,46.5,31.7,30.14,West,274,3.0,7.0,56,0.00,,---,0.00,VWS V14.01,2013-03-27 00:34:00,
2013-03-26 20:39:00,46.4,31.6,30.14,West,280,6.0,6.0,56,0.00,,---,0.00,VWS V14.01,2013-03-27 00:39:00,
2013-03-26 20:44:00,46.4,31.1,30.14,West,262,6.0,9.0,55,0.00,,---,0.00,VWS V14.01,2013-03-27 00:44:00,
2013-03-26 20:49:00,46.5,31.2,30.14,WNW,300,5.0,9.0,55,0.00,,---,0.00,VWS V14.01,2013-03-27 00:49:00,
2013-03-26 20:54:00,46.5,31.2,30.15,WNW,283,6.0,10.0,55,0.00,,---,0.00,VWS V14.01,2013-03-27 00:54:00,
2013-03-26 20:59:00,46.5,31.2,30.15,West,274,7.0,11.0,55,0.00,,---,0.00,VWS V14.01,2013-03-27 00:59:00,
2013-03-26 21:04:00,46.6,31.3,30.15,WNW,290,5.0,11.0,55,0.00,,---,0.00,VWS V14.01,2013-03-27 01:04:00,
2013-03-26 21:09:00,46.5,31.2,30.15,West,273,6.0,11.0,55,0.00,,---,0.00,VWS V14.01,2013-03-27 01:09:00,
2013-03-26 21:14:00,46.5,31.7,30.15,West,272,5.0,9.0,56,0.00,,---,0.00,VWS V14.01,2013-03-27 01:14:00,
2013-03-26 21:19:00,46.4,31.1,30.16,West,271,7.0,9.0,55,0.00,,---,0.00,VWS V14.01,2013-03-27 01:19:00,
2013-03-26 21:24:00,46.3,32.3,30.16,West,271,7.0,9.0,58,0.00,,---,0.00,VWS V14.01,2013-03-27 01:24:00,
2013-03-26 21:29:00,46.2,32.2,30.16,WNW,288,5.0,9.0,58,0.00,,---,0.00,VWS V14.01,2013-03-27 01:29:00,
2013-03-26 21:34:00,46.0,32.1,30.16,West,270,9.0,11.0,58,0.00,,---,0.00,VWS V14.01,2013-03-27 01:34:00,
2013-03-26 21:39:00,45.9,32.0,30.16,WSW,253,7.0,9.0,58,0.00,,---,0.00,VWS V14.01,2013-03-27 01:39:00,
2013-03-26 21:44:00,45.8,31.9,30.17,West,271,7.0,9.0,58,0.00,,---,0.00,VWS V14.01,2013-03-27 01:44:00,
2013-03-26 21:49:00,45.7,32.2,30.17,WNW,285,5.0,11.0,59,0.00,,---,0.00,VWS V14.01,2013-03-27 01:49:00,
2013-03-26 21:54:00,45.6,32.1,30.17,West,281,6.0,8.0,59,0.00,,---,0.00,VWS V14.01,2013-03-27 01:54:00,
2013-03-26 21:59:00,45.4,32.3,30.17,West,277,6.0,7.0,60,0.00,,---,0.00,VWS V14.01,2013-03-27 01:59:00,
2013-03-26 22:04:00,45.3,32.2,30.17,WNW,288,8.0,11.0,60,0.00,,---,0.00,VWS V14.01,2013-03-27 02:04:00,
2013-03-26 22:09:00,45.2,32.2,30.18,West,278,7.0,9.0,60,0.00,,---,0.00,VWS V14.01,2013-03-27 02:09:00,
2013-03-26 22:14:00,45.1,32.1,30.18,West,281,7.0,11.0,60,0.00,,---,0.00,VWS V14.01,2013-03-27 02:14:00,
2013-03-26 22:19:00,44.9,32.3,30.18,West,262,4.0,9.0,61,0.00,,---,0.00,VWS V14.01,2013-03-27 02:19:00,
2013-03-26 22:24:00,44.8,31.8,30.18,West,280,8.0,11.0,60,0.00,,---,0.00,VWS V14.01,2013-03-27 02:24:00,
2013-03-26 22:29:00,44.7,32.5,30.18,WNW,283,6.0,10.0,62,0.00,,---,0.00,VWS V14.01,2013-03-27 02:29:00,
2013-03-26 22:34:00,44.5,32.3,30.19,West,276,5.0,10.0,62,0.00,,---,0.00,VWS V14.01,2013-03-27 02:34:00,
2013-03-26 22:39:00,44.4,32.2,30.19,West,276,5.0,9.0,62,0.00,,---,0.00,VWS V14.01,2013-03-27 02:39:00,
2013-03-26 22:44:00,44.4,31.8,30.19,West,276,6.0,12.0,61,0.00,,---,0.00,VWS V14.01,2013-03-27 02:44:00,
2013-03-26 22:49:00,44.3,31.7,30.19,West,271,10.0,13.0,61,0.00,,---,0.00,VWS V14.01,2013-03-27 02:49:00,
2013-03-26 22:54:00,44.3,31.7,30.19,West,273,8.0,11.0,61,0.00,,---,0.00,VWS V14.01,2013-03-27 02:54:00,
2013-03-26 22:59:00,44.2,31.6,30.19,WNW,284,9.0,10.0,61,0.00,,---,0.00,VWS V14.01,2013-03-27 02:59:00,
2013-03-26 23:04:00,44.0,32.2,30.19,West,281,7.0,10.0,63,0.00,,---,0.00,VWS V14.01,2013-03-27 03:04:00,
2013-03-26 23:09:00,43.9,31.7,30.19,WNW,295,9.0,11.0,62,0.00,,---,0.00,VWS V14.01,2013-03-27 03:09:00,
2013-03-26 23:14:00,43.8,32.0,30.20,WNW,284,4.0,13.0,63,0.00,,---,0.00,VWS V14.01,2013-03-27 03:14:00,
2013-03-26 23:19:00,43.6,31.9,30.19,West,262,9.0,10.0,63,0.00,,---,0.00,VWS V14.01,2013-03-27 03:19:00,
2013-03-26 23:24:00,43.5,32.2,30.20,WNW,285,5.0,11.0,64,0.00,,---,0.00,VWS V14.01,2013-03-27 03:24:00,
2013-03-26 23:29:00,43.4,31.3,30.20,WNW,286,10.0,11.0,62,0.00,,---,0.00,VWS V14.01,2013-03-27 03:29:00,
2013-03-26 23:34:00,43.4,31.7,30.19,West,267,6.0,14.0,63,0.00,,---,0.00,VWS V14.01,2013-03-27 03:34:00,
2013-03-26 23:39:00,43.3,31.6,30.20,West,280,6.0,12.0,63,0.00,,---,0.00,VWS V14.01,2013-03-27 03:39:00,
2013-03-26 23:44:00,43.2,31.9,30.20,WNW,284,6.0,10.0,64,0.00,,---,0.00,VWS V14.01,2013-03-27 03:44:00,
2013-03-26 23:49:00,43.2,31.1,30.20,WNW,288,5.0,12.0,62,0.00,,---,0.00,VWS V14.01,2013-03-27 03:49:00,
2013-03-26 23:54:00,43.3,30.8,30.20,WNW,283,10.0,15.0,61,0.00,,---,0.00,VWS V14.01,2013-03-27 03:54:00,
2013-03-26 23:59:00,43.2,31.5,30.20,WNW,300,9.0,11.0,63,0.00,,---,0.00,VWS V14.01,2013-03-27 03:59:00,